Weather History for La Grande, OR

Change the Weather History Date:

Thursday, February 14, 2013

  Actual Average Record
Temperature  
Mean Temperature 39 °F -  
Max Temperature 48 °F 40 °F 55 °F (2011)
Min Temperature 30 °F 27 °F 12 °F (1990)
Degree Days  
Heating Degree Days 26    
Moisture  
Dew Point 26 °F    
Average Humidity 57    
Maximum Humidity 70    
Minimum Humidity 43    
Precipitation  
Precipitation 0.00 in - - ()
Sea Level Pressure  
Sea Level Pressure 30.43 in    
Wind  
Wind Speed 4 mph (North)    
Max Wind Speed 13 mph    
Max Gust Speed 17 mph    
Visibility 10 miles    
Events      
Averages and records for this station are not official NWS values.
T = Trace of Precipitation, MM = Missing Value Source: NWS Daily Summary

Daily Weather History Graph

Daily Weather History Graph

Search for Another Location

Airport:

Trip Planner

Search our weather history database for the weather conditions in past years. The results will help you decide how hot, cold, wet, or windy it might be!

Date:

Astronomy

Feb. 14, 2013 Rise Set
Actual Time 6:54 AM PST 5:18 PM PST
Civil Twilight 6:24 AM PST 5:49 PM PST
Nautical Twilight 5:49 AM PST 6:23 PM PST
Astronomical Twilight 5:15 AM PST 6:57 PM PST
Moon 8:42 AM PST (2/14) 10:44 PM PST (2/14)
Length of Visible Light 11h 25m
Length of Day
10h 24m
Waxing Crescent, 22% of the Moon is Illuminated
Feb 14
Waxing Crescent
Feb 17
First Quarter
Feb 25
Full
Mar 4
Last Quarter
Mar 11
New

Hourly Weather History & Observations

Time (PST) Temp. Windchill Dew Point Humidity Pressure Visibility Wind Dir Wind Speed Gust Speed Precip Events Conditions
12:15 AM 39.2 °F 33.0 °F 24.8 °F 56% 30.37 in 10.0 mi NNW 9.2 mph - N/A   Overcast
12:35 AM 39.2 °F 33.0 °F 26.6 °F 61% 30.37 in 10.0 mi NNW 9.2 mph - N/A   Overcast
12:55 AM 39.2 °F 33.6 °F 26.6 °F 61% 30.37 in 10.0 mi North 8.1 mph - N/A   Overcast
1:15 AM 37.4 °F 32.8 °F 24.8 °F 60% 30.37 in 10.0 mi NNE 5.8 mph - N/A   Overcast
1:35 AM 37.4 °F 31.4 °F 24.8 °F 60% 30.38 in 10.0 mi NNE 8.1 mph - N/A   Overcast
1:55 AM 37.4 °F 31.4 °F 26.6 °F 65% 30.39 in 10.0 mi North 8.1 mph - N/A   Overcast
2:15 AM 37.4 °F 31.4 °F 24.8 °F 60% 30.39 in 10.0 mi North 8.1 mph - N/A   Overcast
2:35 AM 37.4 °F 32.1 °F 24.8 °F 60% 30.39 in 10.0 mi North 6.9 mph - N/A   Overcast
2:55 AM 37.4 °F - 24.8 °F 60% 30.40 in 10.0 mi Calm Calm - N/A   Overcast
3:15 AM 37.4 °F - 26.6 °F 65% 30.40 in 10.0 mi Calm Calm - N/A   Overcast
3:35 AM 35.6 °F - 24.8 °F 65% 30.40 in 10.0 mi Calm Calm - N/A   Overcast
4:15 AM 37.4 °F - 24.8 °F 60% 30.40 in 10.0 mi Calm Calm - N/A   Overcast
4:35 AM 35.6 °F - 24.8 °F 65% 30.41 in 10.0 mi Calm Calm - N/A   Overcast
4:55 AM 33.8 °F - 24.8 °F 70% 30.41 in 10.0 mi Calm Calm - N/A   Overcast
5:15 AM 33.8 °F - 23.0 °F 65% 30.41 in 10.0 mi Calm Calm - N/A   Overcast
5:35 AM 33.8 °F - 24.8 °F 70% 30.42 in 10.0 mi Calm Calm - N/A   Overcast
5:55 AM 33.8 °F 28.6 °F 21.2 °F 60% 30.42 in 10.0 mi SSW 5.8 mph - N/A   Overcast
6:15 AM 30.2 °F - 21.2 °F 69% 30.42 in 10.0 mi Calm Calm - N/A   Overcast
6:35 AM 30.2 °F 24.3 °F 21.2 °F 69% 30.42 in 10.0 mi SW 5.8 mph - N/A   Overcast
6:55 AM 32.0 °F 28.7 °F 21.2 °F 64% 30.43 in 10.0 mi SW 3.5 mph - N/A   Mostly Cloudy
7:15 AM 30.2 °F 26.7 °F 19.4 °F 64% 30.42 in 10.0 mi SW 3.5 mph - N/A   Scattered Clouds
7:35 AM 32.0 °F - 21.2 °F 64% 30.43 in 10.0 mi Calm Calm - N/A   Partly Cloudy
7:55 AM 32.0 °F 28.7 °F 21.2 °F 64% 30.43 in 10.0 mi SW 3.5 mph - N/A   Partly Cloudy
8:15 AM 35.6 °F 32.8 °F 26.6 °F 70% 30.44 in 10.0 mi WSW 3.5 mph - N/A   Mostly Cloudy
8:35 AM 37.4 °F - 26.6 °F 65% 30.46 in 10.0 mi Calm Calm - N/A   Mostly Cloudy
8:55 AM 39.2 °F - 28.4 °F 65% 30.45 in 10.0 mi Calm Calm - N/A   Mostly Cloudy
9:15 AM 41.0 °F - 26.6 °F 57% 30.46 in 10.0 mi Calm Calm - N/A   Mostly Cloudy
9:35 AM 42.8 °F - 26.6 °F 53% 30.45 in 10.0 mi Calm Calm - N/A   Overcast
9:55 AM 42.8 °F - 26.6 °F 53% 30.46 in 10.0 mi Calm Calm - N/A   Overcast
10:15 AM 42.8 °F - 26.6 °F 53% 30.46 in 10.0 mi Calm Calm - N/A   Overcast
10:35 AM 42.8 °F - 26.6 °F 53% 30.46 in 10.0 mi Calm Calm - N/A   Overcast
10:55 AM 44.6 °F 43.1 °F 26.6 °F 49% 30.46 in 10.0 mi NNE 3.5 mph - N/A   Overcast
11:15 AM 42.8 °F 40.1 °F 26.6 °F 53% 30.46 in 10.0 mi North 4.6 mph - N/A   Overcast
11:35 AM 44.6 °F - 26.6 °F 49% 30.46 in 10.0 mi Calm Calm - N/A   Overcast
11:55 AM 44.6 °F 41.4 °F 26.6 °F 49% 30.45 in 10.0 mi NNE 5.8 mph - N/A   Overcast
12:15 PM 44.6 °F - 26.6 °F 49% 30.45 in 10.0 mi Calm Calm - N/A   Overcast
12:35 PM 44.6 °F - 26.6 °F 49% 30.44 in 10.0 mi Calm Calm - N/A   Overcast
12:55 PM 46.4 °F 45.2 °F 26.6 °F 46% 30.43 in 10.0 mi WNW 3.5 mph - N/A   Overcast
1:15 PM 46.4 °F 42.9 °F 28.4 °F 50% 30.43 in 10.0 mi ENE 6.9 mph - N/A   Overcast
1:35 PM 46.4 °F 45.2 °F 28.4 °F 50% 30.43 in 10.0 mi East 3.5 mph - N/A   Overcast
1:55 PM 48.2 °F - 28.4 °F 46% 30.43 in 10.0 mi WNW 12.7 mph 17.3 mph N/A   Overcast
2:15 PM 48.2 °F - 26.6 °F 43% 30.42 in 10.0 mi NW 9.2 mph - N/A   Overcast
2:35 PM 48.2 °F - 26.6 °F 43% 30.42 in 10.0 mi NNW 6.9 mph - N/A   Overcast
2:55 PM 46.4 °F 45.2 °F 26.6 °F 46% 30.43 in 10.0 mi NE 3.5 mph - N/A   Overcast
3:15 PM 46.4 °F - 28.4 °F 50% 30.43 in 10.0 mi Calm Calm - N/A   Overcast
3:35 PM 48.2 °F - 28.4 °F 46% 30.42 in 10.0 mi Calm Calm - N/A   Overcast
3:55 PM 48.2 °F - 26.6 °F 43% 30.42 in 10.0 mi East 3.5 mph - N/A   Overcast
4:15 PM 46.4 °F 43.5 °F 28.4 °F 50% 30.43 in 10.0 mi East 5.8 mph - N/A   Overcast
4:35 PM 46.4 °F 43.5 °F 28.4 °F 50% 30.42 in 10.0 mi East 5.8 mph - N/A   Overcast
4:55 PM 46.4 °F 44.3 °F 28.4 °F 50% 30.42 in 10.0 mi East 4.6 mph - N/A   Overcast
5:15 PM 44.6 °F - 28.4 °F 53% 30.42 in 10.0 mi Calm Calm - N/A   Overcast
5:35 PM 42.8 °F - 28.4 °F 57% 30.42 in 10.0 mi Calm Calm - N/A   Overcast
5:55 PM 44.6 °F - 28.4 °F 53% 30.42 in 10.0 mi Calm Calm - N/A   Overcast
6:15 PM 42.8 °F 41.1 °F 28.4 °F 57% 30.43 in 10.0 mi NNW 3.5 mph - N/A   Overcast
6:35 PM 42.8 °F 41.1 °F 28.4 °F 57% 30.43 in 10.0 mi North 3.5 mph - N/A   Overcast
6:55 PM 44.6 °F - 28.4 °F 53% 30.43 in 10.0 mi Calm Calm - N/A   Overcast
7:15 PM 44.6 °F - 28.4 °F 53% 30.43 in 10.0 mi Calm Calm - N/A   Overcast
7:35 PM 42.8 °F - 28.4 °F 57% 30.43 in 10.0 mi Calm Calm - N/A   Overcast
7:55 PM 42.8 °F - 28.4 °F 57% 30.44 in 10.0 mi Calm Calm - N/A   Overcast
8:15 PM 42.8 °F - 28.4 °F 57% 30.44 in 10.0 mi Calm Calm - N/A   Overcast
8:35 PM 42.8 °F - 28.4 °F 57% 30.44 in 10.0 mi Calm Calm - N/A   Overcast
8:55 PM 42.8 °F - 28.4 °F 57% 30.45 in 10.0 mi Calm Calm - N/A   Overcast
9:15 PM 41.0 °F - 28.4 °F 61% 30.45 in 10.0 mi Calm Calm - N/A   Overcast
9:35 PM 42.8 °F - 28.4 °F 57% 30.46 in 10.0 mi Calm Calm - N/A   Overcast
9:55 PM 41.0 °F - 28.4 °F 61% 30.47 in 10.0 mi Calm Calm - N/A   Overcast
10:15 PM 41.0 °F 39.0 °F 28.4 °F 61% 30.47 in 10.0 mi East 3.5 mph - N/A   Overcast
10:35 PM 39.2 °F 37.0 °F 28.4 °F 65% 30.48 in 10.0 mi ESE 3.5 mph - N/A   Overcast
10:55 PM 41.0 °F - 28.4 °F 61% 30.47 in 10.0 mi Calm Calm - N/A   Overcast
11:15 PM 41.0 °F - 30.2 °F 65% 30.48 in 10.0 mi Calm Calm - N/A   Overcast
11:55 PM 39.2 °F 37.0 °F 28.4 °F 65% 30.48 in 10.0 mi NW 3.5 mph - N/A   Overcast